Location: Chuathbaluk
(61.5726°N, 159.2454°W)
Time: 17:41:42
(UTC+00:00)

ITAMSAT 1 - Pass Details

Date: 26 January 2021
Orbit: 784 x 796 km, 98.9° (Epoch: 05 March)

Event Time Altitude Azimuth Distance (km) Brightness Sun altitude
Rises 05:19:59 0° 203° (SSW) 3,273 11.2 -19.9°
Reaches altitude 10° 05:22:43 10° 217° (SW) 2,348 10.6 -20.3°
Maximum altitude 05:26:53 24° 271° (W) 1,584 10.1 -20.8°
Drops below altitude 10° 05:31:05 10° 325° (NW) 2,358 10.6 -21.3°
Sets 05:33:51 0° 339° (NNW) 3,291 11.2 -21.6°
